sat.trackr.live / text

‹ back to catalog

COSMOS 2438

NORAD 32955 · 2008-025C

PAYLOAD ACTIVE UNKNOWN

§ Identity

Operator
Country
CIS
Launch date
2008-05-23
Launch site
PLMSC
Launch vehicle
Mass (kg)
RCS (m²)
0.93

External: N2YO · Heavens-Above · Gunter

§ Orbital elements

Epoch: 2026-09-09T02:54:58.296384Z

Period
115.81 min
Inclination
82.5020°
Eccentricity
0.0022397
Mean motion
12.43370447 rev/d
Perigee alt
1,474.7 km
Apogee alt
1,510.0 km
Semi-major
7,870.5 km
B*
3.8394e-4
RAAN
300.5964°
Arg perigee
120.0505°
Mean anomaly
240.2800°
Rev number
83,026

§ Raw data

COSMOS 24381 32955U 08025C   26252.12150806  .00000064  00000+0  38394-3 0  99982 32955  82.5020 300.5964 0022397 120.0505 240.2800 12.43370447830266

JSON: /api/v1/satellites/32955 · /tle

For live sub-satellite position, see the globe view (requires WebGL).

§ Visibility from observer

Set your observer location to see the next 7 days of passes ≥ 10°. The values pass through the URL so the page stays shareable.

No JS? Fill the form by hand. The geolocation button needs JavaScript.